timestamp,surface_pressure_avg,surface_temp_avg,battery_voltage,lat,long
2021-04-15 00:09:00+00:00,332.9146,1.29,13.05,47.84626,-54.09684
2021-04-15 00:19:00+00:00,336.9963,1.3,12.73,47.84626,-54.09684
2021-04-15 00:29:00+00:00,339.0279,1.3,12.73,47.84626,-54.09684
2021-04-15 00:39:00+00:00,342.103,1.3,12.73,47.84626,-54.09684
2021-04-15 00:49:00+00:00,346.0797,1.3,12.73,47.84626,-54.09684
2021-04-15 00:59:00+00:00,349.6779,1.3,12.73,47.84626,-54.09684
2021-04-15 01:09:00+00:00,351.0265,1.3,12.73,47.84626,-54.09684
2021-04-15 01:19:00+00:00,351.5212,1.3,12.65,47.84626,-54.09684
2021-04-15 01:29:00+00:00,350.0848,1.3,12.65,47.84626,-54.09684
2021-04-15 01:39:00+00:00,350.2461,1.3,12.65,47.84626,-54.09684
2021-04-15 01:49:00+00:00,351.8664,1.3,12.65,47.84626,-54.09684
2021-04-15 01:59:00+00:00,350.49800000000016,1.28,12.65,47.84626,-54.09684
2021-04-15 02:09:00+00:00,345.5431,1.27,12.65,47.84626,-54.09684
2021-04-15 02:19:00+00:00,343.7711,1.26,12.65,47.84626,-54.09684
2021-04-15 02:29:00+00:00,343.4279,1.27,12.65,47.84626,-54.09684
2021-04-15 02:39:00+00:00,340.2030000000001,1.27,12.65,47.84626,-54.09684
2021-04-15 02:49:00+00:00,335.7681,1.25,12.65,47.84626,-54.09684
2021-04-15 02:59:00+00:00,333.7079,1.25,12.65,47.84626,-54.09684
2021-04-15 03:09:00+00:00,329.4430000000001,1.27,12.65,47.84626,-54.09684
2021-04-15 03:19:00+00:00,321.1746,1.23,12.65,47.84626,-54.09684
2021-04-15 03:29:00+00:00,315.9713,1.26,12.65,47.84626,-54.09684
2021-04-15 03:39:00+00:00,313.2764,1.26,12.65,47.84626,-54.09684
2021-04-15 03:49:00+00:00,306.4547,1.26,12.65,47.84626,-54.09684
2021-04-15 03:59:00+00:00,298.6063,1.24,12.65,47.84626,-54.09684
2021-04-15 04:09:00+00:00,295.4913,1.24,12.65,47.84626,-54.09684
2021-04-15 04:19:00+00:00,290.418,1.25,12.57,47.84626,-54.09684
2021-04-15 04:29:00+00:00,282.0031,1.22,12.57,47.84626,-54.09684
2021-04-15 04:39:00+00:00,274.5631,1.22,12.57,47.84626,-54.09684
2021-04-15 04:49:00+00:00,268.4514,1.2,12.57,47.84626,-54.09684
2021-04-15 04:59:00+00:00,260.1998,1.21,12.57,47.84626,-54.09684
2021-04-15 05:09:00+00:00,251.5697,1.24,12.57,47.84626,-54.09684
2021-04-15 05:19:00+00:00,246.3164,1.24,12.57,47.84626,-54.09684
2021-04-15 05:29:00+00:00,238.3548,1.25,12.57,47.84626,-54.09684
2021-04-15 05:39:00+00:00,228.0714,1.25,12.57,47.84626,-54.09684
2021-04-15 05:49:00+00:00,222.0197,1.27,12.57,47.84626,-54.09684
2021-04-15 05:59:00+00:00,218.0164,1.26,12.57,47.84626,-54.09684
2021-04-15 06:09:00+00:00,210.3865,1.23,12.57,47.84626,-54.09684
2021-04-15 06:19:00+00:00,202.2247,1.23,12.57,47.84626,-54.09684
2021-04-15 06:29:00+00:00,198.4615,1.24,12.57,47.84626,-54.09684
2021-04-15 06:39:00+00:00,192.9481,1.24,12.57,47.84626,-54.09684
2021-04-15 06:49:00+00:00,185.3231,1.22,12.57,47.84626,-54.09684
2021-04-15 06:59:00+00:00,182.4282,1.24,12.57,47.84626,-54.09684
2021-04-15 07:09:00+00:00,181.1331,1.25,12.57,47.84626,-54.09684
2021-04-15 07:19:00+00:00,178.5498,1.26,12.57,47.84626,-54.09684
2021-04-15 07:29:00+00:00,178.8698,1.27,12.57,47.84626,-54.09684
2021-04-15 07:39:00+00:00,181.5481,1.28,12.57,47.84626,-54.09684
2021-04-15 07:49:00+00:00,183.4348,1.28,12.57,47.84626,-54.09684
2021-04-15 07:59:00+00:00,185.9964,1.28,12.57,47.84626,-54.09684
2021-04-15 08:09:00+00:00,191.0531,1.26,12.57,47.84626,-54.09684
2021-04-15 08:19:01+00:00,192.0364,1.27,12.57,47.84626,-54.09684
2021-04-15 08:29:01+00:00,193.9648,1.29,12.57,47.84626,-54.09684
2021-04-15 08:39:01+00:00,201.2514,1.28,12.57,47.84626,-54.09684
2021-04-15 08:49:01+00:00,205.3098,1.29,12.57,47.84626,-54.09684
2021-04-15 08:59:01+00:00,206.0931,1.3,12.57,47.84626,-54.09684
2021-04-15 09:09:01+00:00,211.1931,1.3,12.57,47.84626,-54.09684
2021-04-15 09:19:01+00:00,220.1264,1.3,12.57,47.84626,-54.09684
2021-04-15 09:29:01+00:00,224.3198,1.3,12.57,47.84626,-54.09684
2021-04-15 09:39:01+00:00,227.128,1.3,12.57,47.84626,-54.09684
2021-04-15 09:49:01+00:00,233.1047,1.3,12.57,47.84626,-54.09684
2021-04-15 09:59:01+00:00,238.4964,1.3,12.57,47.84626,-54.09684
2021-04-15 10:09:01+00:00,240.6798,1.3,12.57,47.84626,-54.09684
2021-04-15 10:19:00+00:00,246.3131,1.3,12.73,47.84626,-54.09684
2021-04-15 10:29:00+00:00,252.5814,1.29,12.73,47.84626,-54.09684
2021-04-15 10:39:00+00:00,255.0564,1.29,12.73,47.84626,-54.09684
2021-04-15 10:49:00+00:00,258.0547,1.3,12.73,47.84626,-54.09684
2021-04-15 10:59:00+00:00,264.938,1.28,12.73,47.84626,-54.09684
2021-04-15 11:09:00+00:00,268.4648,1.28,12.73,47.84626,-54.09684
2021-04-15 11:19:00+00:00,270.4648,1.26,13.37,47.84626,-54.09684
2021-04-15 11:29:00+00:00,275.498,1.26,13.37,47.84626,-54.09684
2021-04-15 11:39:00+00:00,283.5597,1.2,13.37,47.84626,-54.09684
2021-04-15 11:49:00+00:00,288.4763,1.2,13.37,47.84626,-54.09684
2021-04-15 11:59:00+00:00,292.3297,1.2,13.37,47.84626,-54.09684
2021-04-15 12:09:00+00:00,299.0047,1.2,13.37,47.84626,-54.09684
2021-04-15 12:19:00+00:00,307.0514,1.22,13.84,47.84626,-54.09684
2021-04-15 12:29:00+00:00,312.2447,1.25,13.84,47.84626,-54.09684
2021-04-15 12:39:00+00:00,316.3846,1.26,13.84,47.84626,-54.09684
2021-04-15 12:49:00+00:00,321.7897,1.28,13.84,47.84626,-54.09684
2021-04-15 12:59:00+00:00,325.1313,1.28,13.84,47.84626,-54.09684
2021-04-15 13:09:00+00:00,325.0447,1.27,13.84,47.84626,-54.09684
2021-04-15 13:19:00+00:00,326.9963,1.27,14.48,47.84626,-54.09684
2021-04-15 13:29:00+00:00,331.4546,1.24,14.48,47.84626,-54.09684
2021-04-15 13:39:00+00:00,330.9896,1.26,14.48,47.84626,-54.09684
2021-04-15 13:49:00+00:00,324.488,1.26,14.48,47.84626,-54.09684
2021-04-15 13:59:00+00:00,324.6263,1.26,14.48,47.84626,-54.09684
2021-04-15 14:09:00+00:00,326.6613,1.3,14.48,47.84626,-54.09684
2021-04-15 14:19:00+00:00,322.9597,1.3,14.48,47.84626,-54.09684
2021-04-15 14:29:00+00:00,318.2097,1.39,14.48,47.84626,-54.09684
2021-04-15 14:39:00+00:00,319.3947,1.4,14.48,47.84626,-54.09684
2021-04-15 14:49:00+00:00,317.7797,1.38,14.48,47.84626,-54.09684
2021-04-15 14:59:00+00:00,312.328,1.32,14.48,47.84626,-54.09684
2021-04-15 15:09:00+00:00,311.0514,1.32,14.48,47.84626,-54.09684
2021-04-15 15:19:01+00:00,309.3413,1.36,14.48,47.84626,-54.09684
2021-04-15 15:29:01+00:00,305.723,1.52,14.48,47.84626,-54.09684
2021-04-15 15:39:01+00:00,301.3047,1.65,14.48,47.84626,-54.09684
2021-04-15 15:49:01+00:00,299.928,1.4,14.48,47.84626,-54.09684
2021-04-15 15:59:01+00:00,293.1647,1.43,14.48,47.84626,-54.09684
2021-04-15 16:09:01+00:00,288.1364,1.4,14.48,47.84626,-54.09684
2021-04-15 16:19:00+00:00,286.2448,1.51,14.56,47.84626,-54.09684
2021-04-15 16:29:00+00:00,279.4998,1.69,14.56,47.84626,-54.09684
2021-04-15 16:39:00+00:00,269.14799999999997,1.88,14.56,47.84626,-54.09684
2021-04-15 16:49:00+00:00,265.2581,1.9,14.56,47.84626,-54.09684
2021-04-15 16:59:00+00:00,261.3364,1.8,14.56,47.84626,-54.09684
2021-04-15 17:09:00+00:00,251.3598,1.5,14.56,47.84626,-54.09684
2021-04-15 17:19:01+00:00,244.1798,1.72,14.48,47.84626,-54.09684
2021-04-15 17:29:01+00:00,241.2097,2.09,14.48,47.84626,-54.09684
2021-04-15 17:39:01+00:00,233.0148,2.0,14.48,47.84626,-54.09684
2021-04-15 17:49:01+00:00,222.0681,1.8,14.48,47.84626,-54.09684
2021-04-15 17:59:01+00:00,217.6998,1.8,14.48,47.84626,-54.09684
2021-04-15 18:09:01+00:00,215.8164,1.8,14.48,47.84626,-54.09684
2021-04-15 18:19:00+00:00,210.7414,1.8,14.32,47.84626,-54.09684
2021-04-15 18:29:00+00:00,203.8148,1.8,14.32,47.84626,-54.09684
2021-04-15 18:39:00+00:00,200.2714,1.8,14.32,47.84626,-54.09684
2021-04-15 18:49:00+00:00,197.9714,1.84,14.32,47.84626,-54.09684
2021-04-15 18:59:00+00:00,194.0448,2.19,14.32,47.84626,-54.09684
2021-04-15 19:09:00+00:00,191.5132,2.3,14.32,47.84626,-54.09684
2021-04-15 19:19:00+00:00,192.0348,2.2,14.16,47.84626,-54.09684
2021-04-15 19:29:00+00:00,192.1964,2.2,14.16,47.84626,-54.09684
2021-04-15 19:39:00+00:00,188.9532,2.19,14.16,47.84626,-54.09684
2021-04-15 19:49:00+00:00,190.0248,2.13,14.16,47.84626,-54.09684
2021-04-15 19:59:00+00:00,195.2897,2.27,14.16,47.84626,-54.09684
2021-04-15 20:09:00+00:00,196.4131,2.3,14.16,47.84626,-54.09684
2021-04-15 20:19:00+00:00,198.3514,2.3,13.92,47.84626,-54.09684
2021-04-15 20:29:00+00:00,205.7715,2.28,13.92,47.84626,-54.09684
2021-04-15 20:39:00+00:00,214.5497,2.2,13.92,47.84626,-54.09684
2021-04-15 20:49:00+00:00,218.3464,2.2,13.92,47.84626,-54.09684
2021-04-15 20:59:00+00:00,221.4231,2.2,13.92,47.84626,-54.09684
2021-04-15 21:09:00+00:00,228.4581,2.2,13.92,47.84626,-54.09684
2021-04-15 21:19:00+00:00,235.4731,2.1,13.76,47.84626,-54.09684
2021-04-15 21:29:00+00:00,239.6831,2.1,13.76,47.84626,-54.09684
2021-04-15 21:39:00+00:00,244.4281,2.1,13.76,47.84626,-54.09684
2021-04-15 21:49:00+00:00,250.4064,2.1,13.76,47.84626,-54.09684
2021-04-15 21:59:00+00:00,254.4915,2.1,13.76,47.84626,-54.09684
2021-04-15 22:09:00+00:00,255.6197,2.04,13.76,47.84626,-54.09684
2021-04-15 22:19:00+00:00,258.0981,1.9,13.37,47.84626,-54.09684
2021-04-15 22:29:00+00:00,263.1731,1.79,13.37,47.84626,-54.09684
2021-04-15 22:39:00+00:00,268.3431,2.07,13.37,47.84626,-54.09684
2021-04-15 22:49:00+00:00,271.7031,2.33,13.37,47.84626,-54.09684
2021-04-15 22:59:00+00:00,275.8364,2.3,13.37,47.84626,-54.09684
2021-04-15 23:09:00+00:00,280.1097,1.8,13.37,47.84626,-54.09684
2021-04-15 23:19:00+00:00,285.1281,1.75,13.05,47.84626,-54.09684
2021-04-15 23:29:00+00:00,289.328,1.7,13.05,47.84626,-54.09684
2021-04-15 23:39:00+00:00,294.3946,1.68,13.05,47.84626,-54.09684
2021-04-15 23:49:00+00:00,300.2997,1.6,13.05,47.84626,-54.09684
2021-04-15 23:59:00+00:00,308.6963,1.6,13.05,47.84626,-54.09684
